Regional Weather Roundup
Issued by NWS

Home | Current Version | Previous Version | Text Only | Print | Product List | Glossary Off
Versions: 1 2 3 4 5 6 7 8 9 10 11 12 13 14 15 16 17 18 19 20 21 22 23 24 25 26 27 28 29 30 31 32 33 34 35 36 37 38 39 40 41 42 43 44 45 46 47 48 49 50

000
ASUS45 KBOI 241110
RWRID

IDAHO REGIONAL WEATHER ROUNDUP
NATIONAL WEATHER SERVICE BOISE ID
500 AM MDT MON APR 24 2017

NOTE: "FAIR" INDICATES FEW OR NO CLOUDS BELOW 12000 FEET
WITH NO SIGNIFICANT WEATHER AND/OR OBSTRUCTIONS TO VISIBILITY

IDZ012-014-241200-
SOUTHWEST IDAHO


CITY           SKY/WX    TMP DP  RH WIND       PRES   REMARKS
BOISE          CLOUDY    46  40  79 SW6       29.71S
CALDWELL       CLOUDY    47  41  80 W9        29.72S
MOUNTAIN HOME  CLOUDY    47  47 100 CALM      29.71F
$$

IDZ016-017-241200-
SOUTHCENTRAL IDAHO


CITY           SKY/WX    TMP DP  RH WIND       PRES   REMARKS
BURLEY         CLOUDY    44  39  82 SW5       29.73S
JEROME         LGT RAIN  47  39  74 NW8       29.74S
TWIN FALLS     CLOUDY    42  38  85 S7        29.73F
$$

IDZ019>023-241200-
SOUTHEAST IDAHO


CITY           SKY/WX    TMP DP  RH WIND       PRES   REMARKS
IDAHO FALLS    CLOUDY    46  37  71 SW10      29.73F
POCATELLO      MOCLDY    44  36  73 S5        29.74S
REXBURG        CLOUDY    43  36  76 SW9       29.72S
$$

IDZ006-010-011-018-031-032-241200-
CENTRAL IDAHO MOUNTAINS


CITY           SKY/WX    TMP DP  RH WIND       PRES   REMARKS
MCCALL         MOCLDY    34  31  88 CALM      29.69F
HAILEY         CLOUDY    41  32  70 CALM      29.75F
STANLEY          N/A     33  31  92 CALM      29.74F
SALMON         PTCLDY    39  36  87 CALM      29.73F
CHALLIS        CLOUDY    39  34  82 W5        29.73F
$$

IDZ002-004-006-007-026-241200-
NORTHERN IDAHO


CITY           SKY/WX    TMP DP  RH WIND       PRES   REMARKS
LEWISTON       LGT RAIN  47  45  93 E5        29.75F
LOWELL           N/A     45  42  89 CALM      29.78F
COEUR D`ALENE  LGT RAIN  44  39  82 S9        29.71F
MULLAN PASS    CLOUDY    29  29 100 SW6       29.68F FOG     WCI  23
$$



USA.gov is the U.S. government's official web portal to all federal, state and local government web resources and services.